[[{"header":{"parameterUnit":"m.s-1","parameterCategory":1,"la1":30.2991,"la2":30.254,"lo1":-89.0895,"lo2":-89.0444,"dy":0.0017,"dx":0.0017,"nx":28,"ny":28,"refTime":"2023-08-29T09:00:00:Z","depth":0,"parameterNumber":2,"parameterNumberName":"U-component_of_WINDS"},"data":[0,0,0,0,0,0,0,0,0,0,0,0,0,0,0,0,0,0,0,0,0,0,0,0,0,0,0,0,0,0,0,0,0,0,0,0,0,0,0,0,0,0,0,0,0,0,0,0,0,0,0,0,0,0,0,0,0,0,-2.0522,-2.0522,0,-2.0481,-2.0481,-2.048,-2.0388,-2.0386,-2.0384,-2.0382,-2.0341,-2.0342,-2.0343,0,0,0,0,0,0,0,0,0,0,0,0,0,-2.052,-2.052,-2.0522,-2.0521,-2.0521,-2.0481,-2.0481,-2.048,-2.0388,-2.0386,-2.0384,-2.0381,-2.0341,-2.0342,-2.0343,0,0,0,0,0,0,0,0,0,0,0,0,0,-2.0504,-2.0521,-2.0522,-2.047,-2.0465,-2.0481,-2.0481,-2.048,-2.0389,-2.0386,-2.0383,-2.038,-2.0341,-2.0342,-2.0343,-2.0407,0,0,-2.0346,-2.0347,0,0,0,0,0,0,0,0,-2.0505,-2.0504,-2.0478,-2.0474,-2.0468,-2.0437,-2.0465,-2.0455,-2.0389,-2.0418,-2.0382,-2.0379,-2.0376,-2.0374,-2.0372,-2.0405,-2.0403,-2.0346,-2.0347,-2.0347,-2.0348,0,0,0,0,0,0,0,-2.0506,-2.0506,-2.0506,-2.0478,-2.0472,-2.0449,-2.0444,-2.0463,-2.0413,-2.0415,-2.0408,-2.0405,-2.0372,-2.0371,-2.0371,-2.0402,-2.0346,-2.0347,-2.0348,-2.0348,-2.0483,-2.0486,0,0,0,0,0,0,-2.0515,-2.0507,-2.0507,-2.0505,-2.048,-2.0451,-2.0445,-2.045,-2.0413,-2.0404,-2.0407,-2.04,-2.0371,-2.0369,-2.0369,-2.044,-2.0347,-2.0348,-2.0349,-2.048,-2.0484,-2.0487,0,0,0,0,0,0,-2.0515,-2.0516,-2.0509,-2.0504,-2.0501,-2.0454,-2.046,-2.045,-2.0449,-2.0407,-2.0397,-2.0416,-2.0369,-2.0367,-2.0397,-2.0437,-2.0349,-2.035,-2.0477,-2.0481,-2.0486,-2.0584,0,0,0,0,0,0,-2.0516,-2.0517,-2.0541,-2.0505,-2.0502,-2.0539,-2.0463,-2.0452,-2.0451,-2.0442,-2.0412,-2.0404,-2.0366,-2.0396,-2.0399,-2.0437,-2.0351,-2.0473,-2.0479,-2.0484,-2.0577,-2.0591,-2.0603,0,0,0,0,0,-2.0516,-2.057,-2.0542,-2.0543,-2.0531,-2.0541,-2.0539,-2.0494,-2.0455,-2.0479,-2.0451,-2.0405,-2.0433,-2.04,-2.0402,-2.0442,-2.047,-2.0477,-2.0484,-2.0571,-2.0588,-2.0603,0,0,0,0,0,0,-2.0613,-2.0565,-2.0533,-2.0578,-2.0564,-2.0526,-2.0554,-2.0514,-2.0512,-2.0504,-2.0448,-2.0442,-2.048,-2.0463,-2.0428,-2.05,-2.0444,-2.0451,-2.051,-2.0526,-2.0539,-2.0543,-2.0351,0,0,0,0,0,-2.0639,-2.0651,-2.0609,-2.0652,-2.0647,-2.0602,-2.0605,-2.0571,-2.0555,-2.0549,-2.0523,-2.0509,-2.0514,-2.0519,-2.0521,-2.0574,-2.0565,-2.0601,-2.0615,-2.0626,-2.0633,-2.0659,-2.0674,-2.0509,-2.0509,-2.0509,0,0,-2.0694,-2.0669,-2.0681,-2.0671,-2.0656,-2.067,-2.0598,-2.0616,-2.0625,-2.0551,-2.0578,-2.0559,-2.0539,-2.0581,-2.0598,-2.0568,-2.0677,-2.0634,-2.0644,-2.0645,-2.0667,-2.0683,-2.0697,-2.0514,-2.0513,-2.0512,0,0,-2.0801,-2.0784,-2.0818,-2.0804,-2.0783,-2.0752,-2.076,-2.0727,-2.0711,-2.0737,-2.0681,-2.0692,-2.0702,-2.069,-2.0686,-2.0786,-2.0744,-2.0789,-2.0858,-2.0884,-2.0897,-2.0908,-2.0944,-2.0957,-2.0796,-2.0796,-2.0796,0,-2.0872,-2.0891,-2.084,-2.0861,-2.0859,-2.0791,-2.0825,-2.0814,-2.0795,-2.0795,-2.0762,-2.0772,-2.0754,-2.0792,-2.0816,-2.0815,-2.0822,-2.0793,-2.0899,-2.091,-2.0919,-2.0953,-2.0967,-2.0802,-2.0801,-2.08,-2.08,0,-2.0979,-2.0993,-2.1023,-2.1005,-2.1005,-2.1033,-2.0986,-2.0992,-2.0958,-2.0931,-2.0957,-2.0933,-2.0929,-2.0935,-2.0902,-2.0968,-2.095,-2.0909,-2.0851,-2.0942,-2.0972,-2.0984,-2.081,-2.0808,-2.0806,-2.0805,0,0,-2.1148,-2.1101,-2.1113,-2.1103,-2.1073,-2.1083,-2.1107,-2.1102,-2.1108,-2.1097,-2.1115,-2.1125,-2.1086,-2.1081,-2.1045,-2.1068,-2.1148,-2.1024,-2.1022,-2.1048,-2.1218,-2.125,-2.1265,-2.112,-2.1122,-2.1124,-2.122,0,-2.1249,-2.1287,-2.1241,-2.1289,-2.1301,-2.1236,-2.1256,-2.124,-2.1215,-2.1221,-2.1192,-2.12,-2.1148,-2.1144,-2.1163,-2.1135,-2.1182,-2.1127,-2.1137,-2.1138,-2.1144,-2.1281,-2.1315,-2.1407,-2.1231,-2.1233,-2.1235,0,-2.1372,-2.1365,-2.1414,-2.138,-2.1383,-2.1403,-2.1394,-2.14,-2.138,-2.136,-2.1354,-2.1311,-2.1331,-2.1274,-2.1301,-2.1265,-2.1266,-2.1252,-2.1254,-2.1254,-2.1192,-2.1285,-2.1435,-2.1449,-2.1253,-2.1252,-2.125,0,-2.1491,-2.1494,-2.1523,-2.1517,-2.1478,-2.1493,-2.1477,-2.1454,-2.1454,-2.1446,-2.1445,-2.144,-2.1438,-2.1435,-2.1391,-2.1354,-2.1424,-2.1363,-2.1407,-2.1409,-2.1426,-2.1426,-2.1579,-2.1426,-2.1426,-2.1425,-2.1425,0,-2.1608,-2.1641,-2.1576,-2.1594,-2.1628,-2.1574,-2.161,-2.1587,-2.1567,-2.1579,-2.1523,-2.1536,-2.1477,-2.1484,-2.145,-2.1477,-2.1476,-2.146,-2.1451,-2.1466,-2.1468,-2.1466,-2.1459,-2.1429,-2.1428,-2.1427,-2.1427,0,-2.1747,-2.1705,-2.1733,-2.1692,-2.1683,-2.171,-2.1676,-2.1691,-2.1661,-2.1677,-2.1678,-2.1631,-2.1635,-2.1591,-2.1588,-2.1565,-2.1608,-2.1587,-2.1615,-2.1608,-2.1655,-2.1651,-2.1813,-2.1831,-2.1667,-2.1668,-2.167,0,-2.1826,-2.1849,-2.1811,-2.1815,-2.1802,-2.1809,-2.1808,-2.1756,-2.1757,-2.1735,-2.1753,-2.1752,-2.1749,-2.1759,-2.1724,-2.1721,-2.17,-2.1756,-2.1699,-2.1713,-2.1701,-2.17,-2.1702,-2.1769,-2.1771,-2.1773,-2.1774,0,-2.197,-2.1947,-2.1947,-2.194,-2.194,-2.1933,-2.1921,-2.1927,-2.187,-2.1874,-2.1878,-2.1875,-2.187,-2.1871,-2.186,-2.1843,-2.18,-2.1792,-2.1802,-2.1818,-2.1833,-2.1826,-2.1648,-2.1789,-2.1788,-2.1787,-2.1786,-2.1785,-2.2081,-2.2098,-2.2074,-2.2076,-2.2061,-2.2051,-2.2063,-2.2033,-2.2035,-2.2027,-2.1996,-2.2005,-2.1982,-2.1963,-2.195,-2.1956,-2.1929,-2.1943,-2.1947,-2.1952,-2.196,-2.1832,-2.1954,-2.1953,-2.1953,-2.1953,-2.1952,0,-2.2222,-2.2202,-2.2205,-2.2189,-2.2191,-2.2148,-2.2132,-2.2137,-2.2145,-2.2127,-2.2125,-2.2128,-2.2128,-2.2093,-2.2087,-2.2099,-2.2078,-2.2099,-2.2098,-2.2095,-2.1985,-2.1977,-2.2116,-2.2116,-2.2116,-2.2116,-2.2116,-2.2116,-2.2295,-2.2322,-2.2296,-2.2315,-2.2295,-2.2303,-2.2297,-2.2287,-2.2273,-2.2279,-2.2278,-2.2255,-2.223,-2.2222,-2.2219,-2.2208,-2.2209,-2.2237,-2.222,-2.2119,-2.2103,-2.2088,-2.208,-2.2238,-2.2238,-2.2329,-2.233,-2.2331]},{"header":{"parameterUnit":"m.s-1","parameterCategory":1,"la1":30.2991,"la2":30.254,"lo1":-89.0895,"lo2":-89.0444,"dy":0.0017,"dx":0.0017,"nx":28,"ny":28,"refTime":"2023-08-29T09:00:00:Z","depth":0,"parameterNumber":3,"parameterNumberName":"V-component_of_WINDS"},"data":[0,0,0,0,0,0,0,0,0,0,0,0,0,0,0,0,0,0,0,0,0,0,0,0,0,0,0,0,0,0,0,0,0,0,0,0,0,0,0,0,0,0,0,0,0,0,0,0,0,0,0,0,0,0,0,0,0,0,-4.8675,-4.8676,0,-4.8765,-4.8766,-4.8767,-4.8708,-4.8706,-4.8703,-4.87,-4.8789,-4.8794,-4.8798,0,0,0,0,0,0,0,0,0,0,0,0,0,-4.8448,-4.8453,-4.8675,-4.8676,-4.8677,-4.8765,-4.8766,-4.8767,-4.8709,-4.8705,-4.8702,-4.8699,-4.8787,-4.8793,-4.8799,0,0,0,0,0,0,0,0,0,0,0,0,0,-4.8543,-4.8454,-4.8675,-4.8659,-4.8658,-4.8764,-4.8766,-4.8767,-4.8709,-4.8705,-4.8701,-4.8698,-4.8785,-4.8792,-4.88,-4.8926,0,0,-4.8822,-4.8825,0,0,0,0,0,0,0,0,-4.8538,-4.8551,-4.866,-4.866,-4.8659,-4.8721,-4.8718,-4.882,-4.871,-4.869,-4.87,-4.8696,-4.8769,-4.8778,-4.8803,-4.893,-4.8934,-4.8823,-4.8827,-4.883,-4.8832,0,0,0,0,0,0,0,-4.8531,-4.8547,-4.871,-4.8661,-4.8661,-4.8645,-4.8655,-4.8737,-4.8751,-4.8691,-4.8687,-4.8699,-4.8768,-4.8797,-4.8805,-4.8935,-4.8822,-4.8829,-4.8833,-4.8836,-4.9168,-4.9172,0,0,0,0,0,0,-4.8527,-4.8542,-4.8707,-4.8713,-4.8588,-4.8653,-4.8663,-4.8705,-4.875,-4.8753,-4.8702,-4.8696,-4.8786,-4.8797,-4.8808,-4.8958,-4.883,-4.8837,-4.8841,-4.9164,-4.9169,-4.9174,0,0,0,0,0,0,-4.8522,-4.8542,-4.8704,-4.8627,-4.8646,-4.8661,-4.8709,-4.8709,-4.8737,-4.8758,-4.876,-4.8729,-4.8783,-4.8798,-4.8897,-4.896,-4.884,-4.8847,-4.9159,-4.9166,-4.9172,-4.9259,0,0,0,0,0,0,-4.8516,-4.8541,-4.859,-4.8628,-4.865,-4.8793,-4.8713,-4.8714,-4.8751,-4.8743,-4.8784,-4.8786,-4.8781,-4.8886,-4.8904,-4.8968,-4.8853,-4.9153,-4.9162,-4.917,-4.9251,-4.9268,-4.9283,0,0,0,0,0,-4.8508,-4.861,-4.8592,-4.8613,-4.8712,-4.8796,-4.8809,-4.8802,-4.8756,-4.8805,-4.8818,-4.8785,-4.8951,-4.8897,-4.8917,-4.8984,-4.9149,-4.9159,-4.9169,-4.9244,-4.9265,-4.9283,0,0,0,0,0,0,-4.8577,-4.8615,-4.8596,-4.8714,-4.8753,-4.8786,-4.8848,-4.8825,-4.8876,-4.8867,-4.8855,-4.8864,-4.8968,-4.8986,-4.8925,-4.9107,-4.9042,-4.9057,-4.9092,-4.9113,-4.9128,-4.9122,-4.8859,0,0,0,0,0,-4.8607,-4.8673,-4.8702,-4.8803,-4.8824,-4.8833,-4.8869,-4.886,-4.8899,-4.8915,-4.8936,-4.8974,-4.9034,-4.9074,-4.9131,-4.9253,-4.9261,-4.9309,-4.9325,-4.9338,-4.935,-4.9415,-4.9437,-4.9207,-4.9207,-4.9207,0,0,-4.8667,-4.8696,-4.8739,-4.8818,-4.8847,-4.8915,-4.8847,-4.8922,-4.8971,-4.8926,-4.9021,-4.9038,-4.908,-4.9191,-4.9241,-4.9208,-4.9416,-4.9351,-4.9361,-4.9366,-4.9428,-4.945,-4.9469,-4.9214,-4.9212,-4.9211,0,0,-4.8812,-4.8842,-4.8929,-4.896,-4.9005,-4.901,-4.9031,-4.9069,-4.9079,-4.9174,-4.9141,-4.92,-4.9305,-4.9336,-4.9365,-4.9522,-4.9494,-4.9541,-4.9625,-4.9688,-4.9706,-4.9722,-4.9778,-4.9798,-4.9553,-4.9553,-4.9554,0,-4.8882,-4.8984,-4.8976,-4.9054,-4.9089,-4.9053,-4.914,-4.917,-4.9231,-4.9256,-4.9219,-4.935,-4.9375,-4.9493,-4.9531,-4.9556,-4.9579,-4.9536,-4.9705,-4.9721,-4.9735,-4.9788,-4.9809,-4.9559,-4.9558,-4.9558,-4.9557,0,-4.9067,-4.9139,-4.9203,-4.9265,-4.9307,-4.939,-4.9393,-4.9437,-4.9424,-4.9433,-4.953,-4.956,-4.9622,-4.9649,-4.9637,-4.9765,-4.9743,-4.9706,-4.964,-4.9763,-4.9812,-4.9832,-4.9567,-4.9565,-4.9563,-4.9562,0,0,-4.9258,-4.9315,-4.9338,-4.9366,-4.9413,-4.9467,-4.9547,-4.9609,-4.9647,-4.969,-4.9756,-4.9845,-4.9811,-4.9845,-4.9836,-4.9892,-5.0014,-4.9848,-4.9848,-4.9877,-5.0156,-5.0183,-5.0207,-4.9995,-4.9999,-5.0002,-5.0152,0,-4.9406,-4.9547,-4.9542,-4.9673,-4.9739,-4.9705,-4.9774,-4.981,-4.982,-4.9876,-4.9887,-4.995,-4.9901,-4.9921,-4.9975,-4.9988,-5.007,-4.9977,-5.0056,-5.0059,-5.0046,-5.0233,-5.0262,-5.0402,-5.0171,-5.0175,-5.0177,0,-4.9597,-4.9648,-4.9787,-4.9824,-4.9851,-4.9914,-4.997,-5.0024,-5.0064,-5.0067,-5.0105,-5.0087,-5.0167,-5.0099,-5.0209,-5.0146,-5.0177,-5.0189,-5.0194,-5.0201,-5.0125,-5.0244,-5.0447,-5.0468,-5.0207,-5.0205,-5.0203,0,-4.9723,-4.9826,-4.9922,-4.9946,-4.9992,-5.0037,-5.0058,-5.0093,-5.0131,-5.0179,-5.0203,-5.026,-5.0291,-5.0335,-5.0333,-5.0284,-5.0443,-5.0375,-5.0447,-5.0448,-5.0482,-5.048,-5.0692,-5.0504,-5.0503,-5.0503,-5.0502,0,-4.9888,-4.9973,-4.9978,-5.0037,-5.0132,-5.0125,-5.0218,-5.0234,-5.0266,-5.0327,-5.03,-5.0357,-5.0351,-5.0408,-5.0407,-5.0497,-5.0511,-5.0515,-5.0514,-5.0518,-5.0517,-5.0538,-5.0528,-5.0508,-5.0507,-5.0506,-5.0505,0,-5.0043,-5.005,-5.0153,-5.0188,-5.0199,-5.0267,-5.0297,-5.0352,-5.036,-5.0437,-5.0455,-5.0467,-5.0533,-5.0535,-5.061,-5.0609,-5.0719,-5.0707,-5.0707,-5.0704,-5.0776,-5.0769,-5.1009,-5.1039,-5.0831,-5.0833,-5.0835,0,-5.0148,-5.0214,-5.0257,-5.0296,-5.032,-5.0384,-5.0422,-5.0417,-5.0458,-5.0508,-5.0557,-5.062,-5.0671,-5.0778,-5.0792,-5.085,-5.0838,-5.0919,-5.0847,-5.0849,-5.0839,-5.0835,-5.0841,-5.0932,-5.0935,-5.0937,-5.0938,0,-5.0334,-5.0334,-5.0391,-5.0449,-5.0496,-5.0542,-5.0584,-5.0617,-5.0616,-5.0663,-5.0731,-5.0771,-5.0848,-5.0911,-5.0967,-5.0987,-5.0963,-5.0961,-5.098,-5.0985,-5.0982,-5.0984,-5.0744,-5.0955,-5.0953,-5.0952,-5.0951,-5.0951,-5.0467,-5.0523,-5.0562,-5.0626,-5.0658,-5.0698,-5.0752,-5.0767,-5.0824,-5.0887,-5.088,-5.0955,-5.0992,-5.1065,-5.109,-5.1148,-5.112,-5.1148,-5.1155,-5.1162,-5.117,-5.0973,-5.1158,-5.1157,-5.1157,-5.1156,-5.1156,0,-5.065,-5.0674,-5.0733,-5.0793,-5.0844,-5.0818,-5.0863,-5.0906,-5.0973,-5.101,-5.1061,-5.1138,-5.1199,-5.1219,-5.1279,-5.1321,-5.1311,-5.1337,-5.1333,-5.1338,-5.1192,-5.1169,-5.1344,-5.1344,-5.1343,-5.1343,-5.1343,-5.1343,-5.0752,-5.0846,-5.085,-5.0959,-5.0982,-5.1056,-5.1084,-5.112,-5.115,-5.1238,-5.1289,-5.1302,-5.1332,-5.1393,-5.1448,-5.1452,-5.1475,-5.1505,-5.1505,-5.1367,-5.1348,-5.133,-5.1309,-5.151,-5.151,-5.1646,-5.1647,-5.1648]}]]